Location: *
(2.7500°S, 66.6833°W)
Time: 00:51:37
(UTC+00:00)

SEDSat Delta rocket - Pass Details

Date: 24 May 2024
Orbit: 531 x 982 km, 31.4° (Epoch: 13 June)

Event Time Altitude Azimuth Distance (km) Brightness Sun altitude
Rises 23:06:31 0° 315° (NW) 3,332 8.2 -11.0°
Reaches altitude 10° 23:09:18 10° 321° (NW) 2,323 7.0 -11.6°
Maximum altitude 23:14:28 43° 32° (NNE) 982 4.0 -12.8°
Enters shadow 23:17:35 19° 95° (E) 1,560 4.5 -13.6°
